Starlink 32498

operational
NORAD ID: 61966 Int'l Des: 2024-210 Owner: SPXS Country: US Constellation: starlink
LEOCIRCULAR

关于 Starlink 32498

正在加载描述...

实时位置

正在加载3D地球...

即将过境

高度历史

Altitude vs Time

uPlot chart will show altitude changes over time

两行轨道根数

1 61966U 24210H 25351.19819638 .00018953 00000-0 69580-3 0 9995
2 61966 43.0006 271.0117 0002934 245.4587 114.5959 15.27609612 62466
Epoch: Dec 17, 2025 • Age: 30 hours

当前状态

高度 491.1 km
速度 7.62 km/s
星下点 -33.85°S, 23.92°W
发射日期 Nov 14, 2024
运行时间 1 years
类型 internet

技术详情

分类 Payload
质量 730.00 kg
干质量 700.00 kg
总质量 730.00 kg
长度 0.30 m
直径 4.10 m
跨度 29.00 m
形状 Box + pan
制造商 SPXS
平台类型 Starlink V2M
阶段状态 In Orbit
所有者/国家 SPXS/US

大型星座

Loading constellations...